| time (UTC) | temp F | wind direction | speed MPH | gust MPH | rain 1hr in | rain 24hr in | rain mn in | humidity % | barometer mb |
| 20260504045002 | 49 | 250 | 5.0 | 11.0 | 0.00 | 0.00 | 0.00 | 52 | 1012.3 |
| 20260504044003 | 50 | 250 | 6.0 | 9.0 | 0.00 | 0.00 | 0.00 | 52 | 1012.4 |
| 20260504041007 | 50 | 205 | 8.0 | 11.0 | 0.00 | 0.00 | 0.00 | 51 | 1012.5 |
| 20260504040008 | 50 | 250 | 5.0 | 8.0 | 0.00 | 0.00 | 0.00 | 50 | 1012.6 |
| 20260504035007 | 51 | 250 | 7.0 | 11.0 | 0.00 | 0.00 | 0.00 | 49 | 1012.6 |
| 20260504034001 | 51 | 205 | 7.0 | 13.0 | 0.00 | 0.00 | 0.00 | 50 | 1012.6 |
| 20260504033002 | 51 | 228 | 7.0 | 11.0 | 0.00 | 0.00 | 0.00 | 49 | 1012.7 |
| 20260504031003 | 51 | 228 | 7.0 | 9.0 | 0.00 | 0.00 | 0.00 | 48 | 1013.2 |
| 20260504030004 | 51 | 250 | 8.0 | 12.0 | 0.00 | 0.00 | 0.00 | 49 | 1012.8 |
| 20260504025005 | 51 | 228 | 7.0 | 11.0 | 0.00 | 0.00 | 0.00 | 49 | 1012.8 |
| 20260504024005 | 51 | 205 | 5.0 | 7.0 | 0.00 | 0.00 | 0.00 | 49 | 1012.8 |
| 20260504023006 | 51 | 228 | 7.0 | 10.0 | 0.00 | 0.00 | 0.00 | 49 | 1012.7 |
| 20260504022007 | 51 | 205 | 9.0 | 11.0 | 0.00 | 0.00 | 0.00 | 49 | 1013.0 |
| 20260504020006 | 51 | 228 | 6.0 | 10.0 | 0.00 | 0.00 | 0.00 | 48 | 1012.8 |
| 20260504015001 | 52 | 228 | 6.0 | 7.0 | 0.00 | 0.00 | 0.00 | 47 | 1012.7 |
| 20260504014002 | 52 | 228 | 6.0 | 8.0 | 0.00 | 0.00 | 0.00 | 47 | 1012.5 |
| 20260504013003 | 52 | 183 | 6.0 | 9.0 | 0.00 | 0.00 | 0.00 | 47 | 1012.5 |
| 20260504012004 | 52 | 205 | 6.0 | 7.0 | 0.00 | 0.00 | 0.00 | 47 | 1012.6 |
| 20260504011004 | 52 | 228 | 5.0 | 6.0 | 0.00 | 0.00 | 0.00 | 46 | 1012.5 |
| 20260504005004 | 53 | 228 | 6.0 | 8.0 | 0.00 | 0.00 | 0.00 | 44 | 1012.5 |
| 20260504004005 | 54 | 250 | 8.0 | 11.0 | 0.00 | 0.00 | 0.00 | 42 | 1012.5 |
| 20260504003004 | 55 | 228 | 8.0 | 9.0 | 0.00 | 0.00 | 0.00 | 42 | 1012.6 |
| 20260504002005 | 55 | 250 | 6.0 | 7.0 | 0.00 | 0.00 | 0.00 | 42 | 1012.4 |
| 20260504001006 | 55 | 228 | 9.0 | 12.0 | 0.00 | 0.00 | 0.00 | 41 | 1012.4 |
| 20260504000007 | 56 | 250 | 8.0 | 11.0 | 0.00 | 0.00 | 0.00 | 40 | 1012.4 |
| 20260503235002 | 56 | 273 | 7.0 | 11.0 | 0.00 | 0.00 | 0.00 | 40 | 1012.4 |
| 20260503233007 | 56 | 250 | 8.0 | 11.0 | 0.00 | 0.00 | 0.00 | 39 | 1012.5 |
| 20260503232002 | 56 | 273 | 8.0 | 12.0 | 0.00 | 0.00 | 0.00 | 39 | 1012.4 |
| 20260503231002 | 56 | 250 | 13.0 | 17.0 | 0.00 | 0.00 | 0.00 | 38 | 1012.3 |
| 20260503230003 | 56 | 228 | 3.0 | 6.0 | 0.00 | 0.00 | 0.00 | 38 | 1012.4 |
| 20260503225030 | 56 | 250 | 6.0 | 8.0 | 0.00 | 0.00 | 0.00 | 36 | 1012.5 |
| 20260503224005 | 56 | 250 | 9.0 | 12.0 | 0.00 | 0.00 | 0.00 | 35 | 1012.4 |
| 20260503223006 | 56 | 250 | 3.0 | 6.0 | 0.00 | 0.00 | 0.00 | 37 | 1012.4 |
| 20260503222007 | 56 | 295 | 10.0 | 17.0 | 0.00 | 0.00 | 0.00 | 35 | 1012.5 |
| 20260503221007 | 56 | 318 | 8.0 | 15.0 | 0.00 | 0.00 | 0.00 | 35 | 1012.4 |
| 20260503220007 | 57 | 295 | 6.0 | 10.0 | 0.00 | 0.00 | 0.00 | 34 | 1012.5 |
| 20260503215002 | 57 | 295 | 5.0 | 9.0 | 0.00 | 0.00 | 0.00 | 34 | 1012.4 |
| 20260503214003 | 57 | 295 | 12.0 | 23.0 | 0.00 | 0.00 | 0.00 | 32 | 1012.3 |
| 20260503213003 | 58 | 250 | 11.0 | 19.0 | 0.00 | 0.00 | 0.00 | 32 | 1012.2 |
| 20260503212004 | 58 | 250 | 6.0 | 14.0 | 0.00 | 0.00 | 0.00 | 32 | 1012.1 |
| 20260503210004 | 58 | 273 | 10.0 | 19.0 | 0.00 | 0.00 | 0.00 | 31 | 1012.2 |
| 20260503205005 | 59 | 273 | 14.0 | 18.0 | 0.00 | 0.00 | 0.00 | 30 | 1012.2 |
| 20260503204005 | 58 | 273 | 13.0 | 18.0 | 0.00 | 0.00 | 0.00 | 31 | 1012.2 |
| 20260503203006 | 58 | 273 | 11.0 | 19.0 | 0.00 | 0.00 | 0.00 | 30 | 1012.5 |
| 20260503195004 | 57 | 250 | 19.0 | 25.0 | 0.00 | 0.00 | 0.00 | 35 | 1012.7 |
| 20260503193004 | 57 | 250 | 13.0 | 24.0 | 0.00 | 0.00 | 0.00 | 34 | 1013.1 |
| 20260503192004 | 57 | 250 | 13.0 | 18.0 | 0.00 | 0.00 | 0.00 | 36 | 1013.2 |
| 20260503191006 | 56 | 228 | 13.0 | 17.0 | 0.00 | 0.00 | 0.00 | 38 | 1013.4 |
| 20260503190006 | 56 | 273 | 17.0 | 23.0 | 0.00 | 0.00 | 0.00 | 35 | 1013.4 |
| 20260503185006 | 57 | 250 | 8.0 | 11.0 | 0.00 | 0.00 | 0.00 | 36 | 1013.5 |
| 20260503184007 | 58 | 250 | 15.0 | 22.0 | 0.00 | 0.00 | 0.00 | 37 | 1013.8 |
| 20260503183001 | 57 | 273 | 15.0 | 24.0 | 0.00 | 0.00 | 0.00 | 35 | 1013.8 |
| 20260503182002 | 57 | 250 | 14.0 | 19.0 | 0.00 | 0.00 | 0.00 | 35 | 1014.0 |
| 20260503181003 | 56 | 250 | 16.0 | 23.0 | 0.00 | 0.00 | 0.00 | 37 | 1014.0 |
| 20260503180004 | 56 | 250 | 18.0 | 25.0 | 0.00 | 0.00 | 0.00 | 34 | 1014.1 |
| 20260503173002 | 56 | 250 | 16.0 | 24.0 | 0.00 | 0.00 | 0.00 | 38 | 1014.2 |
| 20260503172003 | 55 | 273 | 15.0 | 22.0 | 0.00 | 0.00 | 0.00 | 37 | 1014.4 |
| 20260503171004 | 54 | 250 | 18.0 | 24.0 | 0.00 | 0.00 | 0.00 | 37 | 1014.4 |
| 20260503131006 | 44 | 273 | 9.0 | 13.0 | 0.00 | 0.00 | 0.00 | 65 | 1016.1 |
| 20260503081007 | 31 | 250 | 3.0 | 4.0 | 0.00 | 0.00 | 0.00 | 90 | 1015.8 |